DO-64
1 32789U 08021G 12137.70221503 .00003714 00000-0 43450-3 0 3105
2 32789 097.8146 202.0003 0015162 156.7658 203.4211 14.85599149219208
CO-66
1 32791U 08021J 12138.77155833 .00001389 00000-0 17570-3 0 2950
2 32791 097.8022 200.5435 0016162 155.9419 204.2500 14.83323454219238
RS-30
1 32953U 08025A 12138.86537391 .00000010 00000-0 00000 0 0 7857
2 32953 082.4995 313.9969 0019188 017.0832 343.0890 12.43023359180793
TACSAT-3
1 35001U 09028A 12121.72616188 .15204951 73582-5 42606-3 0 00016
2 35001 040.4259 351.8840 0007146 275.2650 085.0693 16.45157000166990
PHARMSAT
1 35002U 09028B 12138.75789541 .00104880 00000-0 57907-3 0 8991
2 35002 040.4601 261.4225 0005974 357.4042 002.6759 15.78476963169505
METEOR-M
1 35865U 09049A 12138.67900493 -.00000008 00000-0 16253-4 0 4166
2 35865 098.6565 193.5723 0003022 126.1821 233.9635 14.21861935138267
RS-38
1 35869U 09049E 12138.77500001 .00000015 00000-0 26366-4 0 4255
2 35869 098.6522 193.6674 0005097 131.8122 228.3490 14.22069166138298
JUGNU
1 37839U 11058B 12138.50179443 .00000620 00000-0 19019-3 0 1503
2 37839 019.9639 184.1285 0018699 246.4524 113.3882 14.12052450 30900
SRMSAT
1 37841U 11058D 12137.52393186 .00000264 00000-0 00000-0 0 01511
2 37841 019.9742 194.3167 0012179 203.8569 156.1295 14.10137841030722
RAX-2
1 37853U 11061D 12137.88481939 .00006762 00000-0 54070-3 0 1788
2 37853 101.7150 163.8223 0248083 080.1559 282.7554 14.79705416 29762
AUBIESAT
1 37854U 11061E 12138.59098777 .00006958 00000-0 54711-3 0 1804
2 37854 101.7177 165.0654 0249372 077.7647 285.1356 14.80074655 29860
HRBE
1 37855U 11061F 12138.53420446 .00006843 00000-0 54012-3 0 1785
2 37855 101.7191 164.9431 0249454 077.7645 285.1367 14.79944021 29859
RS-39
1 38051U 11062C 12138.71690972 .00008905 00000-0 37799-3 0 3414
2 38051 051.6301 304.9892 0011262 288.9056 258.5437 15.23770008 17320
E-STAR
1 38079U 12006C 12138.81720291 .00023095 00000-0 56354-3 0 2326
2 38079 069.4922 025.0027 0751799 286.0969 065.8674 14.13365848 13299
GOLIAT
1 38085U 12006J 12138.71750321 .00023106 00000-0 57056-3 0 2175
2 38085 069.4961 025.3976 0755039 286.3573 065.5871 14.12432531 13277
